Weather History for Bentonville, AR

Change the Weather History Date:

Monday, January 23, 2012

  Actual Average Record
Temperature  
Mean Temperature 43 °F -  
Max Temperature 53 °F 47 °F 72 °F (1967)
Min Temperature 33 °F 23 °F -4 °F (1963)
Degree Days  
Heating Degree Days 22    
Moisture  
Dew Point 27 °F    
Average Humidity 55    
Maximum Humidity 81    
Minimum Humidity 28    
Precipitation  
Precipitation 0.00 in - - ()
Sea Level Pressure  
Sea Level Pressure 29.94 in    
Wind  
Wind Speed 13 mph (West)    
Max Wind Speed 21 mph    
Max Gust Speed 31 mph    
Visibility 10 miles    
Events      
Averages and records for this station are not official NWS values.
T = Trace of Precipitation, MM = Missing Value Source: NWS Daily Summary

Daily Weather History Graph

Daily Weather History Graph

Search for Another Location

Airport:

Trip Planner

Search our weather history database for the weather conditions in past years. The results will help you decide how hot, cold, wet, or windy it might be!

Date:

Astronomy

Jan. 23, 2012 Rise Set
Actual Time 7:24 AM CST 5:33 PM CST
Civil Twilight 6:56 AM CST 6:00 PM CST
Nautical Twilight 6:25 AM CST 6:32 PM CST
Astronomical Twilight 5:54 AM CST 7:02 PM CST
Moon 7:22 AM CST (1/23) 6:19 PM CST (1/23)
Length of Visible Light 11h 03m
Length of Day
10h 08m
New Moon, 0% of the Moon is Illuminated
Jan 23
New Moon
Jan 30
First Quarter
Feb 7
Full
Feb 14
Last Quarter
Feb 21
New

Hourly Weather History & Observations

Time (CST) Temp. Windchill Dew Point Humidity Pressure Visibility Wind Dir Wind Speed Gust Speed Precip Events Conditions
12:15 AM 42.8 °F 34.8 °F 30.2 °F 61% 29.75 in 10.0 mi West 17.3 mph 29.9 mph N/A   Overcast
12:35 AM 41.0 °F 31.6 °F 30.2 °F 65% 29.78 in 10.0 mi West 20.7 mph 29.9 mph N/A   Overcast
12:55 AM 39.2 °F 29.3 °F 28.4 °F 65% 29.79 in 10.0 mi West 20.7 mph 31.1 mph N/A   Overcast
1:15 AM 39.2 °F 29.8 °F 30.2 °F 70% 29.79 in 10.0 mi WNW 18.4 mph 25.3 mph N/A   Overcast
1:35 AM 39.2 °F 30.2 °F 28.4 °F 65% 29.81 in 10.0 mi WNW 17.3 mph 24.2 mph N/A   Overcast
1:55 AM 39.2 °F 31.6 °F 30.2 °F 70% 29.82 in 10.0 mi West 12.7 mph 21.9 mph N/A   Overcast
2:15 AM 39.2 °F 30.8 °F 30.2 °F 70% 29.85 in 10.0 mi West 15.0 mph 19.6 mph N/A   Overcast
2:35 AM 41.0 °F 33.5 °F 30.2 °F 65% 29.87 in 10.0 mi West 13.8 mph 18.4 mph N/A   Overcast
2:55 AM 39.2 °F 30.5 °F 30.2 °F 70% 29.87 in 10.0 mi NW 16.1 mph 23.0 mph N/A   Overcast
3:15 AM 39.2 °F 31.6 °F 30.2 °F 70% 29.86 in 10.0 mi NW 12.7 mph 19.6 mph N/A   Overcast
3:35 AM 39.2 °F 33.0 °F 30.2 °F 70% 29.86 in 10.0 mi WNW 9.2 mph - N/A   Overcast
3:55 AM 39.2 °F 33.0 °F 30.2 °F 70% 29.87 in 10.0 mi West 9.2 mph - N/A   Overcast
4:15 AM 39.2 °F 33.0 °F 30.2 °F 70% 29.88 in 10.0 mi West 9.2 mph - N/A   Overcast
4:35 AM 39.2 °F 32.0 °F 30.2 °F 70% 29.89 in 10.0 mi West 11.5 mph 17.3 mph N/A   Overcast
4:55 AM 39.2 °F 32.0 °F 30.2 °F 70% 29.90 in 10.0 mi West 11.5 mph - N/A   Overcast
5:15 AM 39.2 °F 32.5 °F 30.2 °F 70% 29.91 in 10.0 mi West 10.4 mph - N/A   Mostly Cloudy
5:35 AM 37.4 °F 31.4 °F 30.2 °F 75% 29.91 in 10.0 mi West 8.1 mph - N/A   Partly Cloudy
5:55 AM 37.4 °F 32.8 °F 30.2 °F 75% 29.91 in 10.0 mi WSW 5.8 mph - N/A   Clear
6:15 AM 35.6 °F 29.9 °F 28.4 °F 75% 29.91 in 10.0 mi WSW 6.9 mph - N/A   Clear
6:35 AM 35.6 °F 29.9 °F 30.2 °F 81% 29.91 in 10.0 mi West 6.9 mph - N/A   Clear
6:55 AM 35.6 °F 30.7 °F 28.4 °F 75% 29.92 in 10.0 mi West 5.8 mph - N/A   Clear
7:15 AM 35.6 °F 32.8 °F 28.4 °F 75% 29.91 in 10.0 mi West 3.5 mph - N/A   Clear
7:35 AM 33.8 °F 28.6 °F 28.4 °F 81% 29.91 in 10.0 mi West 5.8 mph - N/A   Clear
7:55 AM 35.6 °F 29.9 °F 28.4 °F 75% 29.92 in 10.0 mi WSW 6.9 mph - N/A   Clear
8:15 AM 35.6 °F 29.9 °F 28.4 °F 75% 29.93 in 10.0 mi WSW 6.9 mph - N/A   Clear
8:35 AM 37.4 °F 30.8 °F 30.2 °F 75% 29.95 in 10.0 mi WSW 9.2 mph - N/A   Clear
8:55 AM 37.4 °F 30.8 °F 28.4 °F 70% 29.96 in 10.0 mi West 9.2 mph - N/A   Clear
9:15 AM 39.2 °F 32.5 °F 28.4 °F 65% 29.97 in 4.0 mi West 10.4 mph - N/A   Clear
9:35 AM 41.0 °F 33.5 °F 28.4 °F 61% 29.99 in 10.0 mi West 13.8 mph - N/A   Clear
9:55 AM 42.8 °F 35.1 °F 28.4 °F 57% 30.00 in 10.0 mi West 16.1 mph 20.7 mph N/A   Clear
10:15 AM 42.8 °F 36.6 °F 28.4 °F 57% 30.01 in 10.0 mi West 11.5 mph - N/A   Clear
10:35 AM 44.6 °F 38.8 °F 28.4 °F 53% 30.01 in 10.0 mi West 11.5 mph - N/A   Clear
10:55 AM 46.4 °F 40.4 °F 28.4 °F 50% 30.00 in 10.0 mi West 13.8 mph - N/A   Clear
11:15 AM 46.4 °F 40.7 °F 26.6 °F 46% 30.00 in 6.0 mi West 12.7 mph - N/A   Clear
11:35 AM 48.2 °F - 26.6 °F 43% 30.00 in 10.0 mi WNW 12.7 mph 19.6 mph N/A   Clear
11:55 AM 48.2 °F - 26.6 °F 43% 30.00 in 10.0 mi WNW 18.4 mph 23.0 mph N/A   Clear
12:15 PM 50.0 °F - 23.0 °F 35% 29.99 in 10.0 mi WNW 15.0 mph 25.3 mph N/A   Clear
12:35 PM 50.0 °F - 23.0 °F 35% 29.99 in 10.0 mi WNW 18.4 mph 21.9 mph N/A   Clear
12:55 PM 50.0 °F - 21.2 °F 32% 29.98 in 10.0 mi WNW 19.6 mph 24.2 mph N/A   Clear
1:15 PM 51.8 °F - 24.8 °F 35% 29.99 in 10.0 mi WNW 15.0 mph 23.0 mph N/A   Clear
1:35 PM 51.8 °F - 24.8 °F 35% 29.99 in 9.0 mi WNW 15.0 mph 23.0 mph N/A   Clear
1:55 PM 51.8 °F - 24.8 °F 35% 29.99 in 10.0 mi West 12.7 mph - N/A   Clear
2:35 PM 51.8 °F - 23.0 °F 33% 29.99 in 10.0 mi WNW 13.8 mph 20.7 mph N/A   Clear
2:55 PM 51.8 °F - 23.0 °F 33% 29.99 in 10.0 mi WNW 9.2 mph - N/A   Clear
3:15 PM 53.6 °F - 23.0 °F 30% 29.99 in 10.0 mi West 11.5 mph 18.4 mph N/A   Clear
3:35 PM 53.6 °F - 23.0 °F 30% 30.00 in 8.0 mi WNW 10.4 mph - N/A   Clear
3:55 PM 53.6 °F - 23.0 °F 30% 30.00 in 10.0 mi WNW 13.8 mph - N/A   Clear
4:15 PM 53.6 °F - 21.2 °F 28% 30.00 in 10.0 mi WNW 11.5 mph 17.3 mph N/A   Clear
4:35 PM 51.8 °F - 21.2 °F 30% 30.01 in 10.0 mi West 9.2 mph - N/A   Clear
4:55 PM 51.8 °F - 21.2 °F 30% 30.01 in 10.0 mi West 8.1 mph - N/A   Clear
5:15 PM 50.0 °F - 21.2 °F 32% 30.01 in 10.0 mi WNW 5.8 mph - N/A   Clear
5:35 PM 48.2 °F - 21.2 °F 34% 30.02 in 10.0 mi West 4.6 mph - N/A   Clear
5:55 PM 46.4 °F 44.3 °F 21.2 °F 37% 30.02 in 10.0 mi West 4.6 mph - N/A   Clear
6:15 PM 44.6 °F 43.1 °F 21.2 °F 39% 30.03 in 10.0 mi SW 3.5 mph - N/A   Clear
6:35 PM 41.0 °F - 21.2 °F 45% 30.03 in 10.0 mi Calm Calm - N/A   Clear
6:55 PM 41.0 °F 39.0 °F 21.2 °F 45% 30.03 in 10.0 mi SW 3.5 mph - N/A   Clear
7:15 PM 39.2 °F 37.0 °F 21.2 °F 49% 30.03 in 10.0 mi SSW 3.5 mph - N/A   Clear
7:55 PM 39.2 °F 37.0 °F 21.2 °F 49% 30.03 in 10.0 mi SSW 3.5 mph - N/A   Clear
8:15 PM 37.4 °F 33.8 °F 21.2 °F 52% 30.04 in 10.0 mi SSW 4.6 mph - N/A   Clear
8:35 PM 37.4 °F - 21.2 °F 52% 30.05 in 10.0 mi Calm Calm - N/A   Clear
8:55 PM 37.4 °F 34.9 °F 21.2 °F 52% 30.05 in 10.0 mi SSW 3.5 mph - N/A   Clear
9:15 PM 39.2 °F 37.0 °F 21.2 °F 49% 30.05 in 10.0 mi SSW 3.5 mph - N/A   Clear
9:35 PM 39.2 °F - 21.2 °F 49% 30.05 in 10.0 mi Calm Calm - N/A   Clear
9:55 PM 35.6 °F 32.8 °F 21.2 °F 56% 30.05 in 10.0 mi SE 3.5 mph - N/A   Clear
10:15 PM 35.6 °F 31.7 °F 21.2 °F 56% 30.06 in 10.0 mi SSE 4.6 mph - N/A   Clear
10:35 PM 35.6 °F 31.7 °F 21.2 °F 56% 30.07 in 10.0 mi SSW 4.6 mph - N/A   Clear
10:55 PM 33.8 °F - 21.2 °F 60% 30.08 in 10.0 mi Calm Calm - N/A   Clear
11:35 PM 33.8 °F - 21.2 °F 60% 30.08 in 10.0 mi Calm Calm - N/A   Clear
11:55 PM 32.0 °F - 21.2 °F 64% 30.08 in 10.0 mi Calm Calm - N/A   Clear